Location: Zagreb
(45.8000°N, 16.0000°E)
Time: 20:41:06
(UTC+01:00)

Tiros 1 despin weight - Pass Details

Date: 26 January 2020
Orbit: 594 x 642 km, 48.2° (Epoch: 24 February)

Event Time Altitude Azimuth Distance (km) Brightness Sun altitude
Rises 12:36:53 0° 261° (W) 2,868 ? 25.1°
Reaches altitude 10° 12:39:10 10° 263° (W) 1,972 ? 25.0°
Maximum altitude 12:43:42 73° 349° (NNW) 653 ? 24.9°
Drops below altitude 10° 12:48:19 10° 74° (ENE) 2,006 ? 24.8°
Sets 12:50:40 0° 77° (ENE) 2,922 ? 24.7°
